Weather Service Report


707 
ASUS42 KCAE 272010
RWRCAE
REGIONAL WEATHER ROUNDUP
NATIONAL WEATHER SERVICE COLUMBIA SC
400 PM EDT FRI MAY 27 2016

NOTE: "FAIR" INDICATES FEW OR NO CLOUDS BELOW 12,000 FEET WITH NO
SIGNIFICANT WEATHER AND/OR OBSTRUCTIONS TO VISIBILITY.

NOT ALL STATIONS ARE QUALITY CONTROLLED BY THE NATIONAL 
WEATHER SERVICE. USE DATA WITH CAUTION...ESPECIALLY 
DEWPOINT OBSERVATIONS.

SCZ001>056-GAZ040-063>065-077-272100-
...UPSTATE SOUTH CAROLINA...
  
CITY           SKY/WX    TMP DP  RH WIND       PRES   REMARKS
ANDERSON       PTSUNNY   82  60  47 S6        30.09F                  
LIBERTY        PTCLDY    83  62  48 SW6       30.10F                  
SPARTANBURG    SUNNY     82  59  44 S5        30.10S                  
CLEMSON        SUNNY     84  61  45 VRB5      30.11F                  
GREENVILLE     MOSUNNY   83  58  42 SE5       30.11F                  
GREENWOOD      SUNNY     83  59  44 VRB5      30.10F                  
GREER          MOSUNNY   82  61  48 S8        30.09F                  
ROCK HILL      PTSUNNY   84  62  47 S6        30.11F                  
CHESTER        PTCLDY    82  57  42 S5        30.11F                  
LAURENS        PTCLDY    81  63  54 SE5       30.10F                  


...CENTRAL SOUTH CAROLINA...
  
CITY           SKY/WX    TMP DP  RH WIND       PRES   REMARKS
COLUMBIA APT   MOSUNNY   87  62  43 E9        30.07F                  
COLUMBIA OWENS SUNNY     88  62  41 SE8       30.08F                  
MCENTIRE ANGB  MOSUNNY   85  61  44 E6        30.08F                  
ORANGEBURG     SUNNY     86  58  38 E10G17    30.08F                  
SUMTER SHAW    MOSUNNY   87  61  41 VRB7      30.06F                  
NEWBERRY       PTCLDY    82  63  51 E6        30.12F                  
AIKEN          FAIR      84  61  45 SE10      30.11F                  
BARNWELL       FAIR      90  63  40 E9G17     30.08F                  
MANNING        FAIR      84  54  34 SE5       30.08F                  
LANCASTER      MOCLDY    84  63  48 SE5       30.11S                  
WINNSBORO      PTCLDY    86  61  42 E6        30.09F                  


...EASTERN AND COASTAL SOUTH CAROLINA...
  
CITY           SKY/WX    TMP DP  RH WIND       PRES   REMARKS
MYRTLE BEACH   MOSUNNY   81  59  47 SE12      30.14F                  
N MYRTLE BCH   SUNNY     81  61  50 E12       30.12F                  
CONWAY         FAIR      81  55  41 SE8       30.11F                  
MARION         FAIR      82  61  47 SE9       30.09F                  
HARTSVILLE     MOCLDY    86  61  42 SE7       30.09S                  
FLORENCE       MOSUNNY   86  60  41 E8        30.09F                  
DARLINGTON     MOSUNNY   86  63  45 SE9       30.09F                  
CHARLESTON APT MOSUNNY   83  59  44 SE10G20   30.10S                  
MOUNT PLEASANT FAIR      82  61  47 E9        30.11S                  
WALTERBORO     CLEAR     88  52  29 SE10      30.09F                  
BEAUFORT       MOSUNNY   82  63  52 E13       30.09F                  


...EASTERN GEORGIA...
  
CITY           SKY/WX    TMP DP  RH WIND       PRES   REMARKS
AUGUSTA BUSH F PTSUNNY   84  63  49 E8        30.05F                  
AUGUSTA DANIEL MOSUNNY   87  62  43 E8        30.07F                  
THOMSON        MOSUNNY   85  65  49 E5        30.11F                  
WASHINGTON     FAIR      82  63  51 SE5       30.09F                  
CLAXTON        FAIR      86  58  39 E7        30.06F                  
SYLVANIA       CLEAR     87  56  34 E7        30.08F                  
STATESBORO     SUNNY     87  57  35 SE8       30.07S                  
SAVANNAH       MOSUNNY   84  61  45 E12       30.08F                  


...SOUTHERN NORTH CAROLINA...
  
CITY           SKY/WX    TMP DP  RH WIND       PRES   REMARKS
CHARLOTTE      MOSUNNY   84  62  47 SE10      30.10F                  
WADESBORO      PTCLDY    86  56  36 S3        30.09F                  
ROCKINGHAM     MOCLDY    86  62  45 E8        30.09F                  
RUTHERFORDTON  MOSUNNY   83  62  48 S10       30.10F                  
ASHEVILLE      CLOUDY    80  60  50 S13       30.14F                  

$$
  

Return to Home page


Western Regional Climate Center, wrcc@dri.edu